Location: Asheville, NC
(35.6000°N, 82.5500°W)
Time: 01:17:30
(UTC-05:00)

Amateur Radio Satellites - All Passes

Search period start: 12 December 2017 00:47
Search period end: 13 December 2017 00:47
Location: Asheville, NC, 35.6000°N, 82.5500°W

Satellite Date Start Highest point End Downlink Frequencies (MHz)
Time Altitude Azimuth
50 SAT 12 Dec 00:49:57 00:52:20 20° 71° (ENE) 00:54:44 437.505
FALCONSAT 3 12 Dec 00:50:51 00:54:31 69° 168° (SSE) 00:58:10 435.103
EO-79 12 Dec 00:51:06 00:55:11 52° 285° (WNW) 00:59:16 145.935-145.965
VELOX 1 12 Dec 00:53:11 00:57:32 54° 259° (W) 01:01:55 145.980
Gurwin Techsat 1B 12 Dec 00:58:20 00:59:55 11° 91° (E) 01:01:29 435.225
BUGSAT 1 12 Dec 01:07:09 01:10:51 34° 99° (E) 01:14:32 437.445
POLYITAN 1 12 Dec 01:13:34 01:17:12 29° 289° (WNW) 01:20:49 437.675
QB50P2 12 Dec 01:40:19 01:42:23 14° 294° (WNW) 01:44:28 145.880/145.840
UKube-1 12 Dec 01:50:10 01:54:29 80° 76° (ENE) 01:58:49 .
DUCHIFAT 1 12 Dec 01:50:26 01:52:50 15° 293° (WNW) 01:55:12 145.980
DX 1 12 Dec 01:59:13 02:03:24 47° 260° (W) 02:07:39 434.975-435.025
RS-15 12 Dec 02:02:15 02:13:06 48° 251° (WSW) 02:23:28 29.354- 29.394
SO-50 12 Dec 02:07:53 02:12:27 55° 244° (WSW) 02:17:04 436.795
BEESAT 12 Dec 02:14:58 02:18:25 20° 67° (ENE) 02:21:53 436.000
Oscar 19 12 Dec 02:18:29 02:23:41 74° 284° (WNW) 02:28:51 437.125/150
MOZHAYETS 4 12 Dec 02:21:14 02:25:14 32° 71° (ENE) 02:29:16
50 SAT 12 Dec 02:22:23 02:24:12 14° 265° (W) 02:26:02 437.505
AO-91 12 Dec 02:25:20 02:28:41 44° 286° (WNW) 02:31:53 145.960
FALCONSAT 3 12 Dec 02:29:54 02:33:35 87° 185° (S) 02:37:15 435.103
Gurwin Techsat 1B 12 Dec 02:35:00 02:40:19 73° 285° (WNW) 02:45:35 435.225
YUBILEINY 12 Dec 02:38:24 02:45:37 30° 84° (E) 02:52:53 435.215
ITUPSAT 1 12 Dec 02:40:05 02:44:25 36° 71° (ENE) 02:48:45 437.325
BUGSAT 1 12 Dec 02:43:30 02:45:53 15° 292° (WNW) 02:48:16 437.445
ITAMSAT 1 12 Dec 03:24:35 03:28:37 23° 95° (E) 03:32:37 435.822/435.867
PCSat 12 Dec 03:26:21 03:27:55 11° 45° (NE) 03:29:29 145.827
CUBESAT XI-V 12 Dec 03:35:42 03:40:08 47° 73° (ENE) 03:44:37 437.345
BEESAT 12 Dec 03:51:34 03:55:54 36° 262° (W) 04:00:17 436.000
AO-7 12 Dec 03:52:00 04:00:19 64° 104° (ESE) 04:08:36 .
MOZHAYETS 4 12 Dec 03:59:04 04:02:24 20° 266° (W) 04:05:46
M-CUBED/EXP-1 PRIME 12 Dec 04:07:37 04:12:10 89° 108° (ESE) 04:16:25 437.505
FALCONSAT 3 12 Dec 04:09:03 04:12:33 43° 199° (SSW) 04:16:02 435.103
ITUPSAT 1 12 Dec 04:18:53 04:22:17 19° 265° (W) 04:25:42 437.325
KKS-1 12 Dec 04:33:00 04:37:07 37° 72° (ENE) 04:41:14 437.445
YUBILEINY 12 Dec 04:33:23 04:41:53 53° 281° (WNW) 04:50:30 435.215
ITAMSAT 1 12 Dec 05:03:25 05:08:07 36° 290° (WNW) 05:12:47 435.822/435.867
PCSat 12 Dec 05:06:46 05:12:12 78° 64° (ENE) 05:17:35 145.827
CUBESAT XI-V 12 Dec 05:15:14 05:17:43 14° 268° (W) 05:20:12 437.345
BEESAT 3 12 Dec 05:18:34 05:21:04 16° 50° (NE) 05:23:32 437.485
STARS 12 Dec 05:24:27 05:28:44 54° 74° (ENE) 05:33:01 437.465
JUGNU 12 Dec 05:27:01 05:30:03 14° 171° (S) 05:33:06 437.505
AO-7 12 Dec 05:45:48 05:52:26 27° 301° (WNW) 05:59:04 .
DOVE 4 12 Dec 05:46:18 05:50:45 58° 285° (WNW) 05:54:56 437.250
FALCONSAT 3 12 Dec 05:49:47 05:51:07 12° 212° (SSW) 05:52:27 435.103
BEESAT 2 12 Dec 05:52:19 05:53:23 11° 46° (NE) 05:54:27 435.950
LilacSat-2 12 Dec 05:56:00 05:59:21 27° 97° (E) 06:02:40 437.200
STRAND 1 12 Dec 06:02:13 06:05:22 17° 65° (ENE) 06:08:31 437.568
CUTE-I 12 Dec 06:07:46 06:12:24 30° 97° (E) 06:17:00 437.470
KKS-1 12 Dec 06:10:53 06:13:45 17° 266° (W) 06:16:37 437.445
XW-2D 12 Dec 06:14:11 06:17:53 45° 99° (E) 06:21:34 145.860 - 145.880
CUTE 1.7 + AOD 2 12 Dec 06:25:16 06:27:24 14° 92° (E) 06:29:33 437.475
XW-2B 12 Dec 06:29:50 06:33:41 72° 101° (E) 06:37:29 145.730 - 145.750
KAITUO 1B 12 Dec 06:30:13 06:33:54 49° 99° (E) 06:37:34 145.475/437.950
NUDT-PHONESAT 12 Dec 06:31:51 06:35:30 48° 100° (E) 06:39:07 437.300
CUBEBUG 2 12 Dec 06:42:43 06:44:28 12° 93° (E) 06:46:14 437.445
XW-2F 12 Dec 06:44:37 06:48:27 76° 282° (WNW) 06:52:14 145.980 - 146.000
PCSat 12 Dec 06:53:17 06:54:49 11° 258° (WSW) 06:56:23 145.827
BEESAT 3 12 Dec 06:55:06 06:58:43 37° 246° (WSW) 07:02:16 437.485
XW-2C 12 Dec 06:57:10 07:00:51 46° 286° (WNW) 07:04:32 145.795 - 145.815
STARS 12 Dec 07:04:06 07:05:19 11° 268° (W) 07:06:33 437.465
JUGNU 12 Dec 07:14:39 07:18:18 17° 181° (S) 07:21:58 437.505
AO-85 12 Dec 07:20:41 07:24:57 30° 54° (NE) 07:29:27 145.980
NO-84 12 Dec 07:25:35 07:28:32 75° 131° (SE) 07:31:42 435.350 FM
BEESAT 2 12 Dec 07:27:34 07:31:33 68° 243° (WSW) 07:35:27 435.950
LilacSat-2 12 Dec 07:30:48 07:33:21 17° 291° (WNW) 07:35:55 437.200
HO-68 12 Dec 07:31:14 07:38:24 72° 104° (ESE) 07:45:31 435.675
FO-29 12 Dec 07:31:33 07:38:42 46° 69° (ENE) 07:46:06 435.910
STRAND 1 12 Dec 07:39:06 07:44:04 52° 260° (W) 07:49:04 437.568
SEEDS 12 Dec 07:41:57 07:46:10 68° 100° (E) 07:50:22 437.485
CUTE-I 12 Dec 07:47:47 07:52:19 29° 292° (WNW) 07:56:50 437.470
XW-2D 12 Dec 07:50:43 07:51:36 11° 293° (WNW) 07:52:27 145.860 - 145.880
XW-2A 12 Dec 07:52:05 07:55:12 32° 98° (E) 07:58:18 145.665 - 145.685
AO-73 12 Dec 07:54:46 07:58:06 21° 95° (E) 08:01:30 145.935
SRMSAT 12 Dec 07:57:26 08:00:07 13° 169° (S) 08:02:48 437.500
CUTE 1.7 + AOD 2 12 Dec 07:59:21 08:03:23 42° 287° (WNW) 08:07:25 437.475
AAUSAT CUBESAT 2 12 Dec 08:09:49 08:13:56 58° 100° (E) 08:18:00 437.432
CUBEBUG 2 12 Dec 08:17:11 08:21:15 46° 286° (WNW) 08:25:24 437.445
UWE-3 12 Dec 08:22:45 08:27:02 75° 283° (WNW) 08:31:26 435.000/436.395/437.385
O/OREOS (USA 219) 12 Dec 08:46:33 08:50:54 45° 105° (ESE) 08:55:15 437.305
TIGRISAT 12 Dec 08:50:41 08:54:06 24° 70° (ENE) 08:57:31 435.000
UNISAT 6 12 Dec 08:52:53 08:56:33 28° 71° (ENE) 09:00:12 437.425
ZACube-1 12 Dec 08:54:19 08:58:36 64° 284° (WNW) 09:02:59 437.345
AO-85 12 Dec 09:01:00 09:05:19 31° 248° (WSW) 09:09:51 145.980
JUGNU 12 Dec 09:04:05 09:06:33 13° 191° (SSW) 09:09:01 437.505
NO-84 12 Dec 09:05:17 09:06:14 11° 331° (NNW) 09:07:12 435.350 FM
FO-29 12 Dec 09:16:58 09:23:42 35° 265° (W) 09:30:44 435.910
Oscar 11 12 Dec 09:19:07 09:23:24 59° 285° (WNW) 09:27:40 .
HO-68 12 Dec 09:20:31 09:25:23 20° 300° (WNW) 09:30:14 435.675
XW-2A 12 Dec 09:26:31 09:27:32 11° 292° (WNW) 09:28:32 145.665 - 145.685
EO-88 12 Dec 09:27:09 09:27:49 10° 92° (E) 09:28:29 145.990 - 145.960
AO-73 12 Dec 09:30:34 09:34:16 28° 288° (WNW) 09:38:02 145.935
DELFI C3 12 Dec 09:38:29 09:42:10 38° 98° (E) 09:45:48 145.870
SRMSAT 12 Dec 09:44:46 09:48:32 17° 179° (S) 09:52:18 437.500
PRISM 12 Dec 10:23:01 10:27:10 88° 259° (W) 10:31:21 437.425
Max Valier Satellite 12 Dec 10:23:20 10:27:03 77° 283° (WNW) 10:30:45 145.860
TIGRISAT 12 Dec 10:27:08 10:30:40 24° 264° (W) 10:34:10 435.000
O/OREOS (USA 219) 12 Dec 10:27:41 10:30:31 16° 301° (WNW) 10:33:21 437.305
UNISAT 6 12 Dec 10:29:57 10:33:13 21° 265° (W) 10:36:27 437.425
POLYITAN 1 12 Dec 10:30:34 10:31:06 10° 65° (ENE) 10:31:39 437.675
QB50P2 12 Dec 10:53:02 10:56:18 22° 70° (ENE) 10:59:33 145.880/145.840
EO-88 12 Dec 10:58:10 11:01:35 38° 286° (WNW) 11:04:59 145.990 - 145.960
ESTCUBE 1 12 Dec 11:01:30 11:04:28 17° 94° (E) 11:07:26 437.505/2401.250
DUCHIFAT 1 12 Dec 11:03:01 11:05:59 19° 69° (ENE) 11:08:58 145.980
DELFI C3 12 Dec 11:14:39 11:16:31 13° 293° (WNW) 11:18:22 145.870
AIST 2D 12 Dec 11:24:46 11:28:04 40° 262° (W) 11:31:23 435.315
NANOSAT C BR1 12 Dec 11:26:43 11:30:40 43° 74° (ENE) 11:34:37 145.865
SRMSAT 12 Dec 11:33:52 11:36:57 14° 189° (S) 11:40:02 437.500
LO-87 12 Dec 11:37:19 11:40:50 65° 101° (E) 11:44:20 145.935 - 145.965
EO-79 12 Dec 11:39:54 11:44:04 74° 77° (ENE) 11:48:16 145.935-145.965
BUGSAT 1 12 Dec 11:54:48 11:57:23 17° 68° (ENE) 11:59:58 437.445
Oscar 19 12 Dec 11:56:26 11:58:40 13° 63° (ENE) 12:00:56 437.125/150
POLYITAN 1 12 Dec 12:02:14 12:06:20 58° 259° (W) 12:10:28 437.675
nSIGHT-1 12 Dec 12:06:19 12:09:29 64° 136° (SE) 12:12:40 .
SPROUT 12 Dec 12:12:02 12:15:25 23° 96° (E) 12:18:46 437.525
Gurwin Techsat 1B 12 Dec 12:15:58 12:18:57 15° 64° (ENE) 12:21:56 435.225
QB50P2 12 Dec 12:28:28 12:31:56 25° 264° (W) 12:35:23 145.880/145.840
ESTCUBE 1 12 Dec 12:37:10 12:41:21 37° 288° (WNW) 12:45:30 437.505/2401.250
DUCHIFAT 1 12 Dec 12:37:50 12:41:25 28° 263° (W) 12:45:02 145.980
ISS 12 Dec 12:38:23 12:41:39 73° 318° (NW) 12:44:56 437.550
VELOX 1 12 Dec 12:46:09 12:50:09 33° 98° (E) 12:54:05 145.980
YUBILEINY 12 Dec 12:55:08 12:57:15 11° 61° (ENE) 12:59:21 435.215
AO-7 12 Dec 13:01:09 13:04:25 13° 50° (NE) 13:07:42 .
NANOSAT C BR1 12 Dec 13:04:46 13:06:31 12° 267° (W) 13:08:18 145.865
AO-91 12 Dec 13:17:30 13:22:39 85° 75° (ENE) 13:27:22 145.960
BUGSAT 1 12 Dec 13:28:50 13:32:27 31° 262° (W) 13:36:04 437.445
Oscar 19 12 Dec 13:32:16 13:37:21 69° 258° (WSW) 13:42:29 437.125/150
50 SAT 12 Dec 13:40:15 13:42:50 23° 97° (E) 13:45:25 437.505
UKube-1 12 Dec 13:41:15 13:43:54 16° 94° (E) 13:46:32 .
nSIGHT-1 12 Dec 13:44:03 13:45:58 15° 332° (NNW) 13:47:54 .
SPROUT 12 Dec 13:47:45 13:51:11 24° 290° (WNW) 13:54:36 437.525
DX 1 12 Dec 13:50:14 13:54:13 35° 98° (E) 13:58:10 434.975-435.025
Gurwin Techsat 1B 12 Dec 13:53:05 13:58:19 61° 259° (WSW) 14:03:36 435.225
NO-84 12 Dec 14:00:29 14:03:05 17° 35° (NE) 14:05:45 435.350 FM
RS-15 12 Dec 14:08:23 14:19:16 39° 106° (ESE) 14:30:09 29.354- 29.394
ISS 12 Dec 14:17:24 14:18:37 12° 336° (NNW) 14:19:51 437.550
VELOX 1 12 Dec 14:23:14 14:26:18 19° 292° (WNW) 14:29:21 145.980
ITAMSAT 1 12 Dec 14:39:36 14:43:55 27° 68° (ENE) 14:48:16 435.822/435.867
ITUPSAT 1 12 Dec 14:45:39 14:47:08 11° 92° (E) 14:48:37 437.325
YUBILEINY 12 Dec 14:46:57 14:55:46 69° 81° (E) 15:04:28 435.215
AO-7 12 Dec 14:47:26 14:55:36 67° 69° (ENE) 15:03:50 .
M-CUBED/EXP-1 PRIME 12 Dec 14:49:28 14:53:36 65° 71° (ENE) 14:58:02 437.505
50 SAT 12 Dec 15:13:12 15:14:32 12° 291° (WNW) 15:15:51 437.505
DOVE 4 12 Dec 15:14:23 15:15:25 11° 63° (ENE) 15:16:27 437.250
UKube-1 12 Dec 15:16:03 15:20:00 36° 288° (WNW) 15:23:55 .
DX 1 12 Dec 15:27:13 15:30:06 18° 293° (WNW) 15:32:57 434.975-435.025
CUBESAT XI-V 12 Dec 15:36:29 15:39:08 15° 92° (E) 15:41:47 437.345
NO-84 12 Dec 15:36:43 15:40:39 67° 229° (SW) 15:44:48 435.350 FM
BEESAT 12 Dec 15:53:56 15:58:42 70° 102° (ESE) 16:03:26 436.000
MOZHAYETS 4 12 Dec 15:55:21 15:59:56 71° 285° (WNW) 16:04:32
ITAMSAT 1 12 Dec 16:18:37 16:23:13 31° 262° (W) 16:27:51 435.822/435.867
SO-50 12 Dec 16:18:58 16:23:25 84° 302° (WNW) 16:27:55 436.795
RS-15 12 Dec 16:19:09 16:31:14 60° 306° (NW) 16:43:19 29.354- 29.394
ITUPSAT 1 12 Dec 16:20:35 16:25:17 61° 286° (WNW) 16:29:58 437.325
AO-7 12 Dec 16:42:37 16:48:50 23° 265° (W) 16:55:07 .
YUBILEINY 12 Dec 16:45:28 16:51:38 22° 279° (W) 16:57:47 435.215
DOVE 4 12 Dec 16:47:01 16:52:19 87° 257° (WSW) 16:57:34 437.250
XW-2D 12 Dec 16:53:37 16:55:44 15° 68° (ENE) 16:57:53 145.860 - 145.880
KAITUO 1B 12 Dec 17:08:14 17:10:24 15° 69° (ENE) 17:12:33 145.475/437.950
XW-2B 12 Dec 17:08:32 17:11:25 21° 71° (ENE) 17:14:20 145.730 - 145.750
NUDT-PHONESAT 12 Dec 17:09:07 17:11:05 14° 68° (ENE) 17:13:05 437.300
CUBESAT XI-V 12 Dec 17:12:11 17:16:41 46° 287° (WNW) 17:21:09 437.345
STARS 12 Dec 17:18:42 17:20:20 12° 93° (E) 17:21:57 437.465
XW-2F 12 Dec 17:22:21 17:25:38 30° 73° (ENE) 17:28:58 145.980 - 146.000
CUTE-I 12 Dec 17:26:29 17:31:23 37° 70° (ENE) 17:36:17 437.470
BEESAT 12 Dec 17:34:31 17:35:49 11° 297° (WNW) 17:37:07 436.000
XW-2C 12 Dec 17:34:54 17:38:32 48° 75° (ENE) 17:42:12 145.795 - 145.815
HO-68 12 Dec 17:56:40 18:03:13 39° 66° (ENE) 18:09:45 435.675
KKS-1 12 Dec 18:02:44 18:07:08 71° 284° (WNW) 18:11:30 437.445
PCSat 12 Dec 18:04:50 18:07:44 15° 104° (ESE) 18:10:37 145.827
LilacSat-2 12 Dec 18:08:12 18:11:52 51° 260° (W) 18:15:36 437.200
XW-2D 12 Dec 18:26:15 18:29:36 30° 263° (W) 18:32:58 145.860 - 145.880
SEEDS 12 Dec 18:30:34 18:34:15 30° 72° (ENE) 18:37:58 437.485
nSIGHT-1 12 Dec 18:35:49 18:38:23 21° 32° (NNE) 18:40:56 .
RS-15 12 Dec 18:38:44 18:47:06 20° 333° (NNW) 18:55:22 29.354- 29.394
KAITUO 1B 12 Dec 18:40:48 18:44:04 29° 263° (W) 18:47:22 145.475/437.950
NUDT-PHONESAT 12 Dec 18:41:23 18:44:37 30° 263° (W) 18:47:53 437.300
XW-2B 12 Dec 18:42:38 18:45:28 20° 265° (W) 18:48:20 145.730 - 145.750
CUTE 1.7 + AOD 2 12 Dec 18:48:13 18:52:26 89° 65° (ENE) 18:56:43 437.475
AO-73 12 Dec 18:49:38 18:50:42 11° 66° (ENE) 18:51:46 145.935
STARS 12 Dec 18:52:42 18:56:54 49° 287° (WNW) 19:01:04 437.465
AAUSAT CUBESAT 2 12 Dec 18:57:02 19:00:28 25° 71° (ENE) 19:03:54 437.432
XW-2F 12 Dec 18:57:43 18:59:46 14° 267° (W) 19:01:51 145.980 - 146.000
O/OREOS (USA 219) 12 Dec 18:59:24 19:03:48 51° 67° (ENE) 19:08:09 437.305
CUTE-I 12 Dec 19:07:13 19:11:27 24° 265° (W) 19:15:43 437.470
ISS 12 Dec 19:08:47 19:11:47 32° 36° (NE) 19:14:47 437.550
CUBEBUG 2 12 Dec 19:11:51 19:16:07 84° 259° (WSW) 19:20:19 437.445
UWE-3 12 Dec 19:16:37 19:20:42 56° 76° (ENE) 19:24:46 435.000/436.395/437.385
HO-68 12 Dec 19:44:25 19:50:51 35° 262° (W) 19:57:21 435.675
PCSat 12 Dec 19:45:11 19:50:31 62° 299° (WNW) 19:55:54 145.827
ZACube-1 12 Dec 19:46:55 19:51:00 65° 76° (ENE) 19:55:05 437.345
XW-2A 12 Dec 19:52:05 19:55:18 52° 260° (W) 19:58:35 145.665 - 145.685
STRAND 1 12 Dec 19:52:21 19:57:26 68° 102° (ESE) 20:02:29 437.568
SEEDS 12 Dec 20:07:01 20:09:56 18° 266° (W) 20:12:52 437.485
Oscar 11 12 Dec 20:10:23 20:14:38 69° 76° (ENE) 20:18:56 .
nSIGHT-1 12 Dec 20:11:43 20:14:37 32° 228° (SW) 20:17:31 .
DELFI C3 12 Dec 20:21:42 20:24:02 15° 68° (ENE) 20:26:22 145.870
AO-73 12 Dec 20:22:26 20:26:26 51° 260° (W) 20:30:28 145.935
FO-29 12 Dec 20:30:29 20:37:05 47° 97° (E) 20:42:53 435.910
AAUSAT CUBESAT 2 12 Dec 20:32:37 20:35:49 21° 265° (W) 20:39:03 437.432
BEESAT 3 12 Dec 20:40:47 20:44:43 67° 117° (ESE) 20:48:41 437.485
O/OREOS (USA 219) 12 Dec 20:41:06 20:42:39 12° 262° (W) 20:44:11 437.305
ISS 12 Dec 20:45:40 20:48:07 20° 230° (SW) 20:50:33 437.550
Max Valier Satellite 12 Dec 20:59:16 21:02:20 26° 72° (ENE) 21:05:26 145.860
RS-15 12 Dec 21:00:31 21:06:42 15° 11° (NNE) 21:12:45 29.354- 29.394
BEESAT 2 12 Dec 21:15:24 21:19:07 39° 115° (ESE) 21:22:54 435.950
EO-88 12 Dec 21:32:06 21:35:36 49° 75° (ENE) 21:39:08 145.990 - 145.960
STRAND 1 12 Dec 21:33:48 21:35:59 13° 297° (WNW) 21:38:10 437.568
AO-85 12 Dec 21:34:32 21:36:31 14° 108° (ESE) 21:38:31 145.980
DELFI C3 12 Dec 21:54:49 21:58:26 33° 262° (W) 22:02:05 145.870
ESTCUBE 1 12 Dec 21:59:40 22:01:12 12° 64° (ENE) 22:02:45 437.505/2401.250
PRISM 12 Dec 22:08:27 22:10:51 15° 94° (E) 22:13:14 437.425
LO-87 12 Dec 22:11:13 22:13:26 16° 70° (ENE) 22:15:39 145.935 - 145.965
FO-29 12 Dec 22:16:08 22:21:39 26° 297° (WNW) 22:26:40 435.910
TIGRISAT 12 Dec 22:20:06 22:24:27 81° 103° (ESE) 22:28:52 435.000
BEESAT 3 12 Dec 22:21:31 22:22:39 11° 314° (NW) 22:23:49 437.485
UNISAT 6 12 Dec 22:22:47 22:27:07 85° 286° (WNW) 22:31:33 437.425
Max Valier Satellite 12 Dec 22:34:01 22:36:09 15° 266° (W) 22:38:16 145.860
FALCONSAT 3 12 Dec 22:38:42 22:41:37 22° 154° (SSE) 22:44:32 435.103
AIST 2D 12 Dec 22:53:02 22:55:20 16° 94° (E) 22:57:37 435.315
BEESAT 2 12 Dec 22:54:23 22:57:00 16° 310° (NW) 22:59:37 435.950
SPROUT 12 Dec 23:03:48 23:05:39 13° 66° (ENE) 23:07:30 437.525
AO-85 12 Dec 23:12:51 23:16:28 37° 305° (NW) 23:20:16 145.980
RS-15 12 Dec 23:13:30 23:24:15 38° 45° (NE) 23:34:25 29.354- 29.394
EO-79 12 Dec 23:28:43 23:31:05 15° 93° (E) 23:33:26 145.935-145.965
ESTCUBE 1 12 Dec 23:33:00 23:37:26 60° 259° (W) 23:41:54 437.505/2401.250
VELOX 1 12 Dec 23:40:45 23:44:08 22° 68° (ENE) 23:47:30 145.980
PRISM 12 Dec 23:42:28 23:46:11 34° 288° (WNW) 23:49:52 437.425
LO-87 12 Dec 23:43:43 23:46:37 24° 264° (W) 23:49:31 145.935 - 145.965
POLYITAN 1 12 Dec 23:50:04 23:53:38 26° 97° (E) 23:57:12 437.675
QB50P2 13 Dec 00:15:05 00:19:17 62° 101° (ESE) 00:23:27 145.880/145.840
FALCONSAT 3 13 Dec 00:16:45 00:20:23 67° 168° (SSE) 00:24:02 435.103
DUCHIFAT 1 13 Dec 00:23:46 00:27:51 51° 100° (E) 00:31:56 145.980
AIST 2D 13 Dec 00:25:35 00:28:25 23° 288° (WNW) 00:31:14 435.315
SPROUT 13 Dec 00:36:59 00:41:05 47° 260° (W) 00:45:11 437.525
